RH
96 94 94 94 96 95 93 92 91 90 88 85 84 83 82 80 79 80 82 84 81 77 80 82 85 77 46 24 13 34 52 50 27 26 26 25 24 22 18 18 21 21 20 24 23 23 21
94 96 97 95 95 94 92 90 88 87 86 85 85 81 80 81 83 82 82 85 80 78 80 80 83 76 42 24 24 31 32 28 26 26 25 23 24 22 22 24 25 29 27 24 21 18 19
93 95 95 96 97 96 94 94 91 88 86 84 84 82 80 84 84 82 84 86 77 78 81 75 76 48 46 20 24 29 35 28 28 26 24 24 22 21 26 29 28 27 26 19 17 19 20
91 93 94 95 96 96 95 94 92 89 88 84 81 84 86 86 85 84 86 88 86 80 76 79 71 49 32 32 29 33 30 31 31 27 30 28 26 26 28 27 27 24 26 15 20 20 23
92 91 93 94 95 95 94 92 90 87 87 86 85 86 88 86 86 87 88 89 87 81 79 77 56 53 27 40 31 27 27 23 28 28 31 30 29 28 29 26 24 28 12 19 17 18 19
84 89 90 91 93 93 92 90 90 89 87 88 87 88 84 85 86 88 89 86 84 76 62 48 48 51 30 20 28 37 33 29 33 28 35 33 30 29 27 25 14 12 18 22 16 18 21
78 80 91 89 92 90 90 90 89 89 88 87 87 84 83 87 86 88 86 56 54 61 59 28 34 28 31 34 34 37 34 36 29 26 27 36 29 25 17 23 21 22 21 19 16 20 30
81 79 79 92 92 90 86 86 89 90 88 86 86 83 87 85 86 90 69 57 41 60 40 37 39 41 39 43 38 37 34 31 32 23 30 41 33 19 32 32 33 28 27 24 21 29 33
80 81 80 80 93 89 87 86 88 87 86 84 86 86 87 88 87 84 63 51 51 54 44 29 39 40 34 38 24 26 36 30 29 26 33 20 23 33 36 34 32 30 31 25 29 29 26
80 81 83 81 84 88 86 82 87 86 84 84 84 87 90 88 82 60 65 48 55 61 43 22 46 44 44 32 32 20 32 26 35 24 28 28 22 32 33 29 30 26 26 32 35 35 30
72 76 78 84 85 95 90 85 82 84 83 86 85 88 90 87 61 65 53 46 55 61 38 27 50 42 45 25 35 37 26 34 27 36 37 28 40 38 35 28 34 26 35 36 37 38 39
63 69 73 79 85 90 93 83 82 82 83 85 86 88 89 93 82 59 69 63 65 62 37 43 54 62 58 43 45 40 32 33 24 36 39 26 33 30 27 37 34 34 40 42 43 39 49
65 62 72 74 81 84 92 91 81 81 81 84 85 88 81 67 69 63 72 84 82 59 13 37 51 56 47 45 52 43 39 41 38 50 48 33 36 32 33 37 40 36 42 46 40 48 32
59 67 64 74 75 81 84 93 90 82 82 85 86 88 78 66 74 76 95 89 77 16 15 29 44 51 47 39 46 45 40 39 36 34 32 42 45 35 33 30 31 40 37 36 41 31 28
58 60 67 66 71 73 83 90 91 91 86 83 88 92 80 85 81 88 99 97 35 18 16 23 47 48 47 42 38 46 44 36 34 37 27 36 28 33 39 32 31 47 55 31 44 41 60
58 60 63 67 70 73 82 87 91 89 93 90 96 97 87 84 86 89 99 72 37 30 31 28 32 34 34 42 41 42 45 35 34 32 28 33 31 35 47 39 36 41 33 69 62 62 54
61 61 64 66 70 72 75 85 84 90 95 94 98 99 79 78 80 96 98 65 38 34 39 42 27 31 25 39 37 40 34 37 38 37 31 29 34 43 50 48 38 49 53 52 48 48 50
62 62 64 67 68 72 74 77 87 88 87 98 97 100 75 76 97 92 90 51 38 33 37 44 50 48 38 42 41 43 36 31 40 41 48 39 42 42 42 28 30 29 34 41 72 73 74
62 63 64 65 68 69 73 74 77 90 93 97 99 97 94 76 96 89 55 51 42 39 41 39 46 45 46 46 47 41 42 49 46 40 50 50 66 62 46 48 44 45 36 36 44 52 73
63 64 64 66 68 70 75 76 73 83 94 95 99 100 100 97 59 56 57 51 51 44 49 51 53 47 48 48 44 43 44 52 53 51 74 61 49 57 49 49 59 93 65 52 58 92 62
63 64 66 67 70 71 76 75 77 86 95 97 100 100 89 99 93 53 50 44 44 52 46 43 56 58 53 57 50 52 44 40 42 50 52 50 56 42 37 35 38 51 49 42 50 55 72
62 64 66 63 67 70 75 76 81 85 89 99 100 99 86 82 62 58 59 61 43 40 45 50 54 43 44 55 44 43 46 50 48 46 55 56 58 45 45 33 34 38 33 32 34 34 38
63 64 65 66 70 70 74 77 82 90 90 100 99 85 74 79 74 78 69 53 47 47 51 42 49 57 63 55 47 44 51 52 54 56 58 67 66 63 62 40 52 70 46 37 34 31 37
63 66 66 73 72 70 76 77 85 93 91 96 95 93 94 87 83 65 49 47 45 43 54 44 50 62 50 49 56 57 54 50 51 53 51 64 72 68 68 64 93 35 30 32 33 34 34
66 73 78 82 80 74 76 84 88 90 91 96 94 92 94 95 60 64 61 53 52 59 64 54 52 49 52 56 65 78 68 81 81 50 47 52 61 84 81 56 40 31 35 71 76 50 35
73 83 90 96 80 80 78 88 86 88 91 94 97 90 86 85 77 56 63 56 68 70 80 73 56 52 58 69 74 76 60 55 47 71 58 50 57 72 64 73 68 59 26 38 47 68 31
77 80 91 88 87 80 79 87 86 83 82 81 90 74 76 97 66 72 79 67 51 56 59 62 64 77 63 80 86 72 59 37 55 63 74 86 91 92 81 79 55 44 43 42 77 61 48
62 66 82 90 88 89 88 83 77 80 78 67 80 68 54 81 70 66 58 63 62 59 63 65 79 80 88 92 73 63 71 47 48 74 45 55 67 86 86 90 89 52 49 57 76 67 62
63 65 68 74 81 87 81 77 79 84 77 68 81 68 64 60 66 61 54 53 59 56 54 60 52 62 63 68 62 55 69 63 53 65 39 79 80 71 66 64 66 49 64 69 60 60 71
Wind_Speed
16 21 19 19 17 16 16 15 13 11 9 7 5 4 5 6 5 4 3 4 4 7 7 7 7 7 6 7 7 7 2 1 2 1 2 2 4 3 7 2 5 8 3 3 4 7 9
10 15 8 18 17 17 16 12 12 11 8 6 5 4 5 5 5 5 4 5 5 7 6 7 3 7 5 12 5 5 1 1 1 3 3 3 2 1 2 4 7 2 3 7 7 9 8
7 2 4 7 4 7 12 11 7 7 6 6 6 5 4 5 5 5 5 5 6 7 8 5 2 4 7 13 2 4 2 2 1 1 4 1 3 7 4 4 1 2 8 7 4 3 3
9 8 7 6 6 7 5 8 9 9 9 8 6 5 5 5 5 4 5 6 6 9 8 2 2 3 9 2 2 6 7 7 4 2 1 4 1 2 5 2 4 7 5 7 7 4 2
14 14 10 10 9 9 9 7 7 6 8 8 8 6 6 5 5 4 4 7 10 9 4 4 6 3 8 4 6 2 10 7 7 6 3 5 5 3 5 9 7 7 8 6 5 2 2
15 17 15 16 15 15 15 14 13 14 11 10 9 7 7 5 5 4 5 4 5 6 5 2 3 6 7 1 3 5 6 11 4 13 9 7 7 8 8 9 8 3 7 7 8 8 7
13 15 21 19 19 19 18 17 15 14 14 13 10 9 7 6 5 5 7 4 6 7 7 8 1 5 2 3 3 5 7 10 13 12 9 13 9 14 11 12 8 6 8 11 10 5 9
15 14 16 19 22 21 21 20 19 17 14 14 14 12 9 7 5 7 6 5 3 5 8 15 16 12 8 3 4 8 10 10 10 9 9 8 14 13 1 5 8 9 11 13 8 2 8
16 16 15 17 21 20 20 20 19 18 17 13 14 15 11 7 6 7 10 7 1 3 7 6 8 10 8 11 8 13 15 7 9 11 15 13 4 4 12 9 11 9 11 10 10 9 14
13 21 20 17 19 19 16 18 20 19 17 15 15 13 13 10 5 7 8 13 6 5 6 8 8 7 10 8 9 12 14 9 7 14 9 9 6 8 13 13 10 11 3 7 7 7 6
8 14 19 21 17 14 17 20 20 20 19 18 18 13 12 18 5 7 3 7 7 5 7 9 6 7 7 15 5 8 13 9 14 9 8 6 10 13 12 10 10 3 3 4 5 8 8
11 8 13 18 21 16 17 19 20 21 20 21 21 18 14 7 4 4 4 11 7 4 11 7 6 9 9 10 5 8 12 8 7 8 6 4 1 6 4 4 10 7 6 5 5 6 8
12 13 12 10 21 22 18 18 20 21 22 22 20 20 17 8 4 7 9 6 5 11 4 8 8 10 13 10 9 9 16 16 11 10 13 14 13 6 9 9 7 12 7 4 6 6 6
15 14 15 13 14 19 24 19 20 23 23 23 23 20 11 9 5 9 5 7 9 11 16 2 4 10 10 15 8 10 16 14 13 7 8 11 8 19 15 18 7 15 12 6 7 7 6
16 18 17 18 18 12 19 22 21 22 24 25 24 11 9 8 8 5 4 11 15 15 4 7 10 10 9 10 6 10 13 9 12 15 7 7 5 8 4 6 12 8 10 13 15 12 9
16 17 20 18 18 16 15 21 22 25 26 25 10 8 9 12 9 3 6 17 13 4 3 7 12 6 11 13 10 12 12 8 6 17 11 4 5 9 7 9 10 9 10 5 6 8 14
16 18 18 21 19 18 18 14 23 22 21 30 6 6 12 15 10 3 10 21 20 7 2 2 6 5 4 6 8 8 5 6 5 6 15 7 8 8 9 13 15 10 12 8 6 9 11
16 17 18 20 21 22 20 17 14 24 26 20 5 6 14 17 8 6 16 28 16 13 12 3 3 1 6 6 7 8 9 1 2 7 8 12 6 13 17 12 13 18 17 19 11 12 8
18 17 19 20 21 22 23 20 17 20 21 10 6 4 9 15 12 13 25 26 21 15 8 9 7 6 3 5 5 7 5 3 2 4 7 9 8 11 16 7 10 15 20 18 19 14 15
18 19 19 21 21 22 24 22 18 17 23 10 5 5 3 9 11 20 28 23 26 15 10 4 3 6 7 10 7 4 7 3 2 2 3 0 8 12 13 4 3 4 10 14 17 11 14
19 19 20 21 21 23 22 22 21 16 12 5 4 4 5 13 16 21 22 17 22 25 19 11 9 12 10 7 9 12 13 11 10 7 7 6 15 15 19 18 17 17 18 18 21 21 19
18 19 21 21 20 24 22 22 21 22 25 2 4 5 2 15 20 21 19 23 23 24 15 21 18 14 18 17 15 10 14 15 15 7 10 5 11 13 21 18 19 21 24 25 24 24 24
19 20 21 22 22 23 23 24 16 29 28 2 2 2 6 13 19 17 18 24 25 15 14 18 15 15 13 18 16 15 10 10 9 10 10 7 7 10 18 16 17 17 25 25 26 23 22
20 20 22 20 24 24 22 19 8 29 17 4 3 4 4 9 14 21 24 25 22 18 17 12 12 13 6 2 2 3 7 11 14 15 14 13 11 9 13 7 16 14 5 11 17 20 23
19 16 16 21 21 21 18 15 10 23 18 3 3 4 2 6 14 16 20 18 15 12 9 14 9 5 6 6 5 4 6 5 11 21 21 18 16 8 10 14 19 21 8 6 10 19 16
13 9 14 23 22 16 15 21 17 18 21 7 4 6 1 6 9 5 16 11 10 10 8 10 8 7 3 4 4 7 8 8 6 5 6 18 19 15 15 17 20 17 14 7 5 13 13
2 6 9 3 7 12 20 18 20 19 16 7 4 5 2 4 5 7 6 9 8 8 6 7 10 9 12 7 8 10 14 8 11 12 5 4 7 17 17 17 13 8 6 9 8 4 1
4 2 3 11 10 10 25 21 17 20 17 8 6 5 3 3 6 6 7 7 9 11 9 7 6 6 8 9 7 8 8 11 14 13 16 12 8 8 13 10 12 10 11 10 1 1 3
3 5 2 8 9 11 9 18 19 20 17 9 5 4 2 2 4 1 5 5 4 3 7 9 5 6 6 8 8 6 7 5 14 14 12 10 12 8 9 3 3 15 0 4 2 3 6
Wind_Direction
244 226 220 202 188 178 176 171 169 170 182 177 192 223 237 234 243 252 273 279 286 309 311 308 314 327 291 250 259 117 301 216 272 280 147 188 231 226 245 254 226 239 234 242 243 278 279
8 5 249 189 179 175 173 173 168 171 169 175 199 212 245 253 247 262 262 272 274 299 294 307 310 302 273 263 91 139 200 211 213 219 188 219 245 276 245 236 247 71 274 274 273 278 295
315 339 7 1 69 155 149 147 170 154 170 181 199 205 237 242 244 263 271 263 269 288 282 304 263 295 257 260 132 160 175 199 101 295 229 200 214 226 151 198 219 268 272 250 244 140 138
247 248 211 217 164 148 160 160 191 180 191 179 207 208 221 223 244 258 270 273 275 275 275 275 191 260 262 120 247 231 198 193 209 204 174 133 171 189 241 116 196 252 265 252 130 222 127
245 231 198 209 196 181 184 188 190 198 195 181 186 198 210 218 236 245 254 268 254 265 226 171 235 252 263 137 229 203 203 214 185 183 137 155 205 231 189 224 221 192 264 237 187 186 162
287 248 211 203 200 195 196 203 200 200 195 191 181 184 209 207 225 226 227 278 111 171 179 232 282 245 222 127 107 129 156 167 156 162 151 174 199 224 215 214 264 281 232 203 258 145 283
296 280 241 207 202 203 207 204 205 209 196 183 178 170 179 213 208 201 162 186 210 205 223 218 213 300 283 349 240 189 162 159 142 172 182 187 208 220 226 227 284 284 270 269 269 260 288
308 294 285 238 203 202 209 209 199 201 204 190 170 163 173 198 203 184 244 232 302 357 288 227 247 255 251 319 210 180 178 191 189 199 160 172 225 246 155 200 225 247 265 268 285 274 276
344 319 303 276 236 214 213 218 197 192 192 194 169 160 164 184 200 183 218 220 110 190 262 236 216 236 222 205 230 190 190 205 211 197 201 236 96 271 196 203 222 228 256 276 281 312 259
348 340 325 305 263 224 221 221 198 190 186 176 172 165 155 155 208 203 215 216 195 339 266 195 204 218 183 184 225 209 214 209 209 228 199 234 209 195 196 219 214 249 227 261 264 274 279
322 342 321 320 284 258 237 220 206 187 178 167 164 167 168 187 127 196 114 179 185 225 273 104 146 119 167 195 104 171 199 210 223 182 187 133 176 201 213 212 197 271 162 238 268 268 298
299 289 312 316 321 267 252 223 205 192 179 172 168 165 160 202 245 160 159 148 180 165 237 164 137 175 165 199 176 119 180 229 223 191 227 272 119 200 206 148 197 133 172 197 239 279 253
288 289 279 283 305 316 268 241 219 199 186 176 173 168 166 172 201 180 154 169 157 216 117 167 176 177 198 174 171 175 175 181 177 182 202 196 206 169 173 158 166 191 196 249 240 205 267
293 281 281 273 267 293 305 259 229 206 190 179 174 167 188 173 145 169 171 193 213 219 214 58 164 172 196 161 183 171 172 188 212 221 150 192 190 201 194 218 196 205 209 235 256 261 276
287 289 278 273 260 263 283 288 250 216 196 184 171 173 181 184 141 162 176 208 215 231 212 184 162 192 181 191 189 174 191 204 199 205 221 194 206 170 200 190 182 164 220 246 263 260 270
286 287 288 279 272 258 267 293 270 223 197 180 180 174 181 156 139 136 204 217 228 206 227 225 209 228 191 180 188 202 180 178 200 203 231 193 219 195 140 161 209 221 147 170 213 238 240
285 282 281 282 275 264 260 251 287 232 200 168 161 176 163 152 123 217 209 219 223 216 262 251 211 184 194 161 211 199 164 126 213 195 212 200 238 157 164 208 185 187 204 226 262 250 269
278 279 278 280 275 261 256 242 263 264 188 175 170 177 163 156 149 201 210 215 218 216 234 257 325 267 188 156 174 203 210 246 124 156 181 208 251 236 212 219 245 222 225 217 229 219 244
285 276 279 276 274 268 259 258 223 262 232 152 178 157 171 170 168 191 223 226 234 224 222 203 229 239 167 183 189 212 176 88 160 193 184 174 210 235 239 220 216 232 236 243 236 254 248
282 276 276 275 269 259 250 247 245 244 235 145 162 145 151 186 194 190 204 218 221 221 248 190 235 220 201 219 223 207 209 134 124 98 55 334 246 248 257 298 28 202 255 242 246 239 253
279 276 272 273 267 270 251 241 244 208 188 107 166 162 179 166 194 202 200 205 216 213 216 215 226 232 215 229 225 233 239 246 260 237 238 244 260 267 266 268 270 252 246 242 239 240 245
282 276 269 275 266 269 260 245 238 198 184 171 130 131 281 156 181 200 200 214 207 208 188 206 227 233 228 235 232 237 237 239 240 210 236 227 261 264 263 262 262 262 257 257 258 258 258
281 279 271 271 266 261 248 256 277 196 174 144 220 148 173 166 184 197 204 213 214 208 206 232 227 238 231 230 244 259 278 267 260 248 229 237 239 239 258 257 257 255 247 253 255 253 250
281 281 279 273 269 254 241 251 245 178 163 147 146 122 168 172 180 196 205 217 234 231 235 217 232 239 223 111 82 221 252 255 252 250 247 238 238 248 262 279 235 252 286 276 254 249 247
283 282 283 279 274 247 227 221 217 206 125 107 113 113 181 155 193 194 204 210 210 208 230 228 211 253 154 189 229 238 217 232 238 239 231 229 242 248 244 250 262 274 230 214 193 247 245
283 293 301 288 249 234 227 189 171 182 153 122 88 99 216 141 192 190 178 181 192 200 202 227 242 229 229 231 200 237 231 224 205 205 257 233 229 235 244 249 258 269 278 166 178 266 225
259 273 334 284 41 220 188 167 175 178 146 126 115 130 97 92 138 150 166 196 198 197 225 172 177 194 208 211 225 238 249 257 247 234 180 190 212 227 235 242 255 264 173 166 199 265 258
296 351 81 6 92 73 153 159 168 156 143 137 132 172 158 163 149 189 173 158 183 205 191 142 163 189 183 207 218 216 234 241 244 250 251 226 231 219 220 236 230 178 156 216 35 47 139
319 333 4 72 22 121 130 154 154 155 145 132 129 164 103 199 82 282 199 228 230 287 253 185 247 157 198 216 213 213 219 241 229 245 210 245 227 247 218 267 109 180 50 136 197 168 168